Zurück zum Katalog

STARLINK-34330

AktivKommunikationVLEO
NORAD 64227·PAYLOAD·🇺🇸 United States

Gestartet May 31, 2025 von Vandenberg Space Force Base

Loading…

Nächste Überflüge (nächste 24 Stunden)

TLE

AktuellSource: CelesTrak SupGP

Epoche: Sep 14, 2026, 14:11 UTC

1 64227C 25117AA  26257.59145833 -.00028255  00000+0 -83500-3 0  2576
2 64227  53.1572 241.0326 0001360  92.2522 259.8328 15.34397388    15

Verfolge STARLINK-34330 in Echtzeit mit AllMySat

Download on the App Store